Location: Baller�as
(41.9020°N, 0.1554°W)
Time: 01:07:20
(UTC+00:00)

Meteor 1-10 Rocket - Pass Details

Date: 10 August 2020
Orbit: 836 x 910 km, 81.3° (Epoch: 22 September)

Event Time Altitude Azimuth Distance (km) Brightness Sun altitude
Rises 20:14:17 0° 349° (NNW) 3,436 8.1 -11.9°
Reaches altitude 10° 20:16:41 10° 348° (NNW) 2,506 7.3 -12.3°
Maximum altitude 20:22:23 81° 263° (W) 889 4.4 -13.1°
Drops below altitude 10° 20:28:10 10° 176° (S) 2,539 6.3 -14.0°
Enters shadow 20:29:13 - 176° (S) 2,943 6.6 -14.2°
